Tillbaka till svenska Fidonet
English   Information   Debug  
FILM   0/18
FNEWS_PUBLISH   4983
FN_SYSOP   42232
FN_SYSOP_OLD1   71952
FTP_FIDO   0/2
FTSC_PUBLIC   0/13976
FUNNY   0/4886
GENEALOGY.EUR   0/71
GET_INFO   105
GOLDED   0/408
HAM   0/16713
HOLYSMOKE   0/6791
HOT_SITES   0/1
HTMLEDIT   0/71
HUB203   466
HUB_100   264
HUB_400   39
HUMOR   0/29
IC   0/2851
INTERNET   0/424
INTERUSER   0/3
IP_CONNECT   719
JAMNNTPD   0/233
JAMTLAND   0/47
KATTY_KORNER   0/41
LAN   0/16
LINUX-USER   0/19
LINUXHELP   0/1155
LINUX   0/22382
LINUX_BBS   0/957
mail   18.68
mail_fore_ok   249
MENSA   0/341
MODERATOR   0/102
MONTE   0/992
MOSCOW_OKLAHOMA   0/1245
MUFFIN   0/783
MUSIC   0/321
N203_STAT   938
N203_SYSCHAT   313
NET203   321
NET204   69
NET_DEV   0/10
NORD.ADMIN   0/101
NORD.CHAT   0/2572
NORD.FIDONET   189
NORD.HARDWARE   0/28
NORD.KULTUR   0/114
NORD.PROG   0/32
NORD.SOFTWARE   0/88
NORD.TEKNIK   0/58
NORD   0/453
OCCULT_CHAT   0/93
OS2BBS   0/787
OS2DOSBBS   0/580
OS2HW   0/42
OS2INET   0/37
OS2LAN   0/134
OS2PROG   0/36
OS2REXX   0/113
OS2USER-L   207
OS2   0/4831
OSDEBATE   0/18996
PASCAL   0/490
PERL   0/457
PHP   0/45
POINTS   0/405
POLITICS   0/29554
POL_INC   0/14731
PSION   103
R20_ADMIN   1133
R20_AMATORRADIO   0/2
R20_BEST_OF_FIDONET   16
R20_CHAT   0/897
R20_DEPP   0/3
R20_DEV   400
R20_ECHO2   1889
R20_ECHOPRES   0/35
R20_ESTAT   0/719
R20_FIDONETPROG...
...RAM.MYPOINT
  0/2
R20_FIDONETPROGRAM   0/22
R20_FIDONET   0/248
R20_FILEFIND   0/24
R20_FILEFOUND   0/22
R20_HIFI   0/3
R20_INFO2   3781
R20_INTERNET   0/12940
R20_INTRESSE   0/60
R20_INTR_KOM   0/99
R20_KANDIDAT.CHAT   42
R20_KANDIDAT   28
R20_KOM_DEV   112
R20_KONTROLL   0/13360
R20_KORSET   0/18
R20_LOKALTRAFIK   0/24
R20_MODERATOR   0/1852
R20_NC   76
R20_NET200   245
R20_NETWORK.OTH...
...ERNETS
  0/13
R20_OPERATIVSYS...
...TEM.LINUX
  0/44
R20_PROGRAMVAROR   0/1
R20_REC2NEC   534
R20_SFOSM   0/341
R20_SF   0/108
R20_SPRAK.ENGLISH   0/1
R20_SQUISH   107
R20_TEST   2
R20_WORST_OF_FIDONET   20
RAR   0/9
RA_MULTI   106
RA_UTIL   0/162
REGCON.EUR   0/2069
REGCON   0/13
SCIENCE   0/1206
SF   0/239
SHAREWARE_SUPPORT   0/5146
SHAREWRE   0/14
SIMPSONS   0/169
STATS_OLD1   0/2539.065
STATS_OLD2   0/2530
STATS_OLD3   2166/2395.095
STATS_OLD4   0/1692.25
SURVIVOR   0/495
SYSOPS_CORNER   0/3
SYSOP   0/84
TAGLINES   0/112
TEAMOS2   0/4530
TECH   0/2617
TEST.444   0/105
TRAPDOOR   0/19
TREK   0/755
TUB   0/290
UFO   0/40
UNIX   0/1316
USA_EURLINK   0/102
USR_MODEMS   0/1
VATICAN   0/2740
VIETNAM_VETS   0/14
VIRUS   0/378
VIRUS_INFO   0/201
VISUAL_BASIC   0/473
WHITEHOUSE   0/5187
WIN2000   0/101
WIN32   0/30
WIN95   0/4291
WIN95_OLD1   0/70272
WINDOWS   0/1517
WWB_SYSOP   0/419
WWB_TECH   0/810
ZCC-PUBLIC   0/1
ZEC   4

 
4DOS   0/134
ABORTION   0/7
ALASKA_CHAT   0/506
ALLFIX_FILE   0/1313
ALLFIX_FILE_OLD1   0/7997
ALT_DOS   0/152
AMATEUR_RADIO   0/1039
AMIGASALE   0/14
AMIGA   0/331
AMIGA_INT   0/1
AMIGA_PROG   0/20
AMIGA_SYSOP   0/26
ANIME   0/15
ARGUS   0/924
ASCII_ART   0/340
ASIAN_LINK   0/651
ASTRONOMY   0/417
AUDIO   0/92
AUTOMOBILE_RACING   0/105
BABYLON5   0/17862
BAG   135
BATPOWER   0/361
BBBS.ENGLISH   0/382
BBSLAW   0/109
BBS_ADS   0/5290
BBS_INTERNET   0/507
BIBLE   0/3563
BINKD   0/1119
BINKLEY   0/215
BLUEWAVE   0/2173
CABLE_MODEMS   0/25
CBM   0/46
CDRECORD   0/66
CDROM   0/20
CLASSIC_COMPUTER   0/378
COMICS   0/15
CONSPRCY   0/899
COOKING   42003
COOKING_OLD1   0/24719
COOKING_OLD2   13319/40862
COOKING_OLD3   0/37489
COOKING_OLD4   28739/35496
COOKING_OLD5   9370
C_ECHO   0/189
C_PLUSPLUS   0/31
DIRTY_DOZEN   0/201
DOORGAMES   0/2333
DOS_INTERNET   0/196
duplikat   6102
ECHOLIST   16433/18295
EC_SUPPORT   0/318
ELECTRONICS   0/359
ELEKTRONIK.GER   1534
ENET.LINGUISTIC   0/13
ENET.POLITICS   0/4
ENET.SOFT   0/11701
ENET.SYSOP   34332
ENET.TALKS   0/32
ENGLISH_TUTOR   0/2000
EVOLUTION   0/1335
FDECHO   0/217
FDN_ANNOUNCE   0/7068
FIDONEWS   25122
FIDONEWS_OLD1   0/49742
FIDONEWS_OLD2   0/35949
FIDONEWS_OLD3   0/30874
FIDONEWS_OLD4   0/37224
FIDO_SYSOP   12973
FIDO_UTIL   0/180
FILEFIND   0/209
FILEGATE   0/212
Möte HAM, 16713 texter
 lista första sista föregående nästa
Text 802, 735 rader
Skriven 2006-01-27 00:02:22 av Amsat List (1:323/120.0)
Ärende: 
========
SB KEPS @ AMSAT  $ORB06026.O
Orbital Elements  06026.OSCAR

HR AMSAT ORBITAL ELEMENTS FOR OSCAR SATELLITES
FROM WA5QGD FORT WORTH,TX January 26, 2006
Send SUBSCRIBE KEPS/UNSUBSCRIBE KEPS to majordomo@amsat.org only
BID: ORB06026.O
TO ALL RADIO AMATEURS BT

Satellite: AO-07
Catalog number: 07530
Epoch time:      06025.97152302
Element set:    0549
Inclination:      101.5945 deg
RA of node:       072.3416 deg
Eccentricity:    0.0012121
Arg of perigee:   162.6865 deg
Mean anomaly:     197.4623 deg
Mean motion:   12.53571845 rev/day
Decay rate:       -2.8e-07 rev/day^2
Epoch rev:           42756
Checksum:              290

Satellite: AO-10
Catalog number: 14129
Epoch time:      06025.01415622
Element set:    0252
Inclination:      027.4710 deg
RA of node:       352.3952 deg
Eccentricity:    0.6031127
Arg of perigee:   256.1976 deg
Mean anomaly:     033.6706 deg
Mean motion:   02.05872224 rev/day
Decay rate:      -2.19e-06 rev/day^2
Epoch rev:           17010
Checksum:              256

Satellite: UO-11
Catalog number: 14781
Epoch time:      06025.60810192
Element set:     980
Inclination:      098.2089 deg
RA of node:       032.7878 deg
Eccentricity:    0.0009446
Arg of perigee:   010.4343 deg
Mean anomaly:     349.7059 deg
Mean motion:   14.79373555 rev/day
Decay rate:       1.93e-06 rev/day^2
Epoch rev:           17468
Checksum:              324

Satellite: RS-10/11
Catalog number: 18129
Epoch time:      06026.63987379
Element set:     898
Inclination:      082.9231 deg
RA of node:       072.8701 deg
Eccentricity:    0.0013057
Arg of perigee:   121.5339 deg
Mean anomaly:     238.7089 deg
Mean motion:   13.72770007 rev/day
Decay rate:        1.7e-07 rev/day^2
Epoch rev:           93173
Checksum:              318

Satellite: RS-15
Catalog number: 23439
Epoch time:      06025.66582668
Element set:    0966
Inclination:      064.8169 deg
RA of node:       107.7331 deg
Eccentricity:    0.0167546
Arg of perigee:   278.2395 deg
Mean anomaly:     079.9559 deg
Mean motion:   11.27551395 rev/day
Decay rate:       -3.9e-07 rev/day^2
Epoch rev:           45647
Checksum:              362

Satellite: FO-29
Catalog number: 24278
Epoch time:      06025.66153411
Element set:    0144
Inclination:      098.5183 deg
RA of node:       049.8680 deg
Eccentricity:    0.0350440
Arg of perigee:   319.6507 deg
Mean anomaly:     037.9101 deg
Mean motion:   13.52918598 rev/day
Decay rate:       -5.2e-07 rev/day^2
Epoch rev:           46627
Checksum:              315

Satellite: SO-33
Catalog number: 25509
Epoch time:      06025.83807498
Element set:    0567
Inclination:      031.4319 deg
RA of node:       214.0196 deg
Eccentricity:    0.0355791
Arg of perigee:   312.0852 deg
Mean anomaly:     045.0024 deg
Mean motion:   14.28073823 rev/day
Decay rate:        6.1e-07 rev/day^2
Epoch rev:           37867
Checksum:              302

Satellite: AO-40
Catalog number: 26609
Epoch time:      06026.04707466
Element set:     668
Inclination:      007.3436 deg
RA of node:       258.4446 deg
Eccentricity:    0.7913671
Arg of perigee:   125.6895 deg
Mean anomaly:     334.6472 deg
Mean motion:   01.25583844 rev/day
Decay rate:       -5.0e-08 rev/day^2
Epoch rev:            2406
Checksum:              320

Satellite: VO-52
Catalog number: 28650
Epoch time:      06026.24675123
Element set:     237
Inclination:      097.8869 deg
RA of node:       101.7185 deg
Eccentricity:    0.0028476
Arg of perigee:   102.2651 deg
Mean anomaly:     258.1773 deg
Mean motion:   14.81041038 rev/day
Decay rate:       5.42e-06 rev/day^2
Epoch rev:            3937
Checksum:              304

/EX
SB KEPS @ AMSAT  $ORB06026.D
Orbital Elements  06026.MICROS

HR AMSAT ORBITAL ELEMENTS FOR THE MICROSATS
FROM WA5QGD FORT WORTH,TX January 26, 2006
Send SUBSCRIBE KEPS/UNSUBSCRIBE KEPS to majordomo@amsat.org only
BID: ORB06026.D
TO ALL RADIO AMATEURS BT

Satellite: AO-16
Catalog number: 20439
Epoch time:      06026.48923098
Element set:     659
Inclination:      098.1938 deg
RA of node:       044.3619 deg
Eccentricity:    0.0009974
Arg of perigee:   257.6661 deg
Mean anomaly:     102.3407 deg
Mean motion:   14.31708240 rev/day
Decay rate:       -2.0e-08 rev/day^2
Epoch rev:           83604
Checksum:              312

Satellite: WO-18
Catalog number: 20441
Epoch time:      06025.50426823
Element set:    0860
Inclination:      098.1983 deg
RA of node:       048.0040 deg
Eccentricity:    0.0010826
Arg of perigee:   263.9207 deg
Mean anomaly:     096.0744 deg
Mean motion:   14.31779659 rev/day
Decay rate:        8.0e-08 rev/day^2
Epoch rev:           83596
Checksum:              310

Satellite: LO-19
Catalog number: 20442
Epoch time:      06026.61335066
Element set:     595
Inclination:      098.2034 deg
RA of node:       053.8069 deg
Eccentricity:    0.0010974
Arg of perigee:   256.9186 deg
Mean anomaly:     103.0777 deg
Mean motion:   14.31952526 rev/day
Decay rate:       -8.0e-08 rev/day^2
Epoch rev:           83619
Checksum:              311

Satellite: UO-22
Catalog number: 21575
Epoch time:      06026.81174363
Element set:     610
Inclination:      098.2764 deg
RA of node:       349.1093 deg
Eccentricity:    0.0007873
Arg of perigee:   129.7441 deg
Mean anomaly:     230.4446 deg
Mean motion:   14.39531518 rev/day
Decay rate:        9.9e-07 rev/day^2
Epoch rev:           76267
Checksum:              316

Satellite: KO-23
Catalog number: 22077
Epoch time:      06026.49471600
Element set:     695
Inclination:      066.0844 deg
RA of node:       038.7901 deg
Eccentricity:    0.0007598
Arg of perigee:   202.2183 deg
Mean anomaly:     157.8505 deg
Mean motion:   12.86434941 rev/day
Decay rate:       -3.7e-07 rev/day^2
Epoch rev:           63231
Checksum:              301

